Terminal Aerodrome Forecast
Issued by NWS Norman, OK

Home | Current Version | Previous Version | Text Only | Print | Product List | Glossary On
Versions: 1 2 3 4 5 6 7 8 9 10 11 12 13 14 15 16 17 18 19 20 21 22 23 24 25
000
FTUS44 KOUN 210528
TAFSPS
TAF
KSPS 210528Z 2106/2206 18006KT P6SM BKN050
     FM210900 VRB04KT 3SM BR FEW008 SCT030
     FM211600 03010KT P6SM BKN040
     FM220100 04007KT P6SM SCT250=

USA.gov is the U.S. government's official web portal to all federal, state and local government web resources and services.